Weather History for Kivalina, AK

Change the Weather History Date:

Sunday, February 17, 2013

  Actual Average Record
Temperature  
Mean Temperature -16 °F -  
Max Temperature -9 °F - - ()
Min Temperature -24 °F - - ()
Degree Days  
Heating Degree Days 82    
Moisture  
Dew Point -19 °F    
Average Humidity 74    
Maximum Humidity 82    
Minimum Humidity 68    
Precipitation  
Precipitation 0.00 in - - ()
Sea Level Pressure  
Sea Level Pressure 30.36 in    
Wind  
Wind Speed 15 mph (NNE)    
Max Wind Speed 24 mph    
Max Gust Speed -    
Visibility 9 miles    
Events      
T = Trace of Precipitation, MM = Missing Value Source: NWS Daily Summary

Daily Weather History Graph

Daily Weather History Graph

Search for Another Location

Airport:

Trip Planner

Search our weather history database for the weather conditions in past years. The results will help you decide how hot, cold, wet, or windy it might be!

Date:

Astronomy

Feb. 17, 2013 Rise Set
Actual Time 10:03 AM AKST 6:22 PM AKST
Civil Twilight 9:04 AM AKST 7:21 PM AKST
Nautical Twilight 8:00 AM AKST 8:25 PM AKST
Astronomical Twilight 6:56 AM AKST 9:29 PM AKST
Moon 10:01 AM AKST (2/17) 5:28 AM AKST (2/17)
Length of Visible Light 10h 17m
Length of Day
8h 18m
Waxing Crescent, 50% of the Moon is Illuminated
Feb 17
Waxing Crescent
Feb 25
Full
Mar 4
Last Quarter
Mar 11
New
Mar 19
First Quarter

Hourly Weather History & Observations

Time (AKST) Temp. Windchill Dew Point Humidity Pressure Visibility Wind Dir Wind Speed Gust Speed Precip Events Conditions
12:53 AM -11.0 °F -31.8 °F -16.1 °F 78% 30.24 in 10.0 mi NE 12.7 mph - N/A   Clear
1:53 AM -11.0 °F -34.9 °F -16.1 °F 78% 30.24 in 10.0 mi NNE 17.3 mph - N/A   Clear
3:53 AM -16.1 °F -39.9 °F -20.9 °F 79% 30.26 in 10.0 mi NNE 15.0 mph - N/A   Clear
4:53 AM -9.9 °F -35.4 °F -17.0 °F 71% 30.26 in 8.0 mi North 20.7 mph - N/A   Clear
5:53 AM -11.0 °F -38.4 °F -17.0 °F 75% 30.26 in 5.0 mi NNE 24.2 mph - N/A   Haze
6:53 AM -11.0 °F -38.4 °F -17.0 °F 75% 30.27 in 5.0 mi North 24.2 mph - N/A   Haze
7:53 AM -11.0 °F -36.2 °F -17.0 °F 75% 30.28 in 9.0 mi NNE 19.6 mph - N/A   Clear
8:53 AM -11.9 °F -34.6 °F -18.0 °F 74% 30.30 in 10.0 mi NNE 15.0 mph - N/A   Clear
9:53 AM -11.0 °F -37.4 °F -18.0 °F 71% 30.31 in 7.0 mi NNE 21.9 mph - N/A   Clear
10:53 AM -11.9 °F -36.1 °F -18.0 °F 74% 30.32 in 8.0 mi North 17.3 mph - N/A   Clear
11:53 AM -11.9 °F -33.8 °F -18.0 °F 74% 30.35 in 10.0 mi North 13.8 mph - N/A   Clear
12:53 PM -11.9 °F -34.6 °F -18.9 °F 71% 30.36 in 10.0 mi NNE 15.0 mph - N/A   Clear
1:53 PM -11.0 °F -32.7 °F -18.9 °F 68% 30.38 in 10.0 mi North 13.8 mph - N/A   Clear
2:53 PM -11.9 °F -29.9 °F -18.9 °F 71% 30.40 in 10.0 mi NE 9.2 mph - N/A   Clear
3:53 PM -11.9 °F -32.0 °F -18.0 °F 74% 30.40 in 10.0 mi NE 11.5 mph - N/A   Clear
4:53 PM -11.0 °F -32.7 °F -18.0 °F 71% 30.40 in 10.0 mi NNE 13.8 mph - N/A   Clear
5:53 PM -11.9 °F -25.7 °F -18.9 °F 71% 30.42 in 9.0 mi NE 5.8 mph - N/A   Clear
6:23 PM -11.2 °F -33.7 °F -18.4 °F 70% 30.43 in 9.0 mi NE 15.0 mph - N/A   Clear
6:53 PM -14.1 °F -35.7 °F -20.9 °F 71% 30.44 in 10.0 mi NNE 12.7 mph - N/A   Clear
8:53 PM -15.0 °F -38.5 °F -22.0 °F 71% 30.46 in 10.0 mi NE 15.0 mph - N/A   Clear
9:53 PM -20.9 °F -34.3 °F -26.0 °F 77% 30.48 in 10.0 mi NE 4.6 mph - N/A   Clear
10:53 PM -24.0 °F -48.2 °F -27.9 °F 82% 30.48 in 10.0 mi NE 12.7 mph - N/A   Clear
11:53 PM -20.9 °F -34.3 °F -26.0 °F 77% 30.49 in 10.0 mi North 4.6 mph - N/A   Clear